Location: Albany
(35.0000°S, 118.0000°E)
Time: 02:14:58
(UTC-04:00)

Atlas Centaur 2 - Visible Passes

Search period start: 28 July 2014 00:00
Search period end: 07 August 2014 00:00
Orbit: 460 x 1330 km, 30.4° (Epoch: 26 July)

Date Brightness Start Highest point End Pass type
(mag) Time Alt. Az. Time Alt. Az. Time Alt. Az.
31 Jul 4.5 17:42:27 10° N 17:44:09 12° NNE 17:45:45 10° NE visible
01 Aug 4.2 17:40:24 10° NNW 17:43:38 16° NNE 17:46:30 10° ENE visible
02 Aug 3.9 17:38:57 10° NNW 17:43:08 22° NNE 17:46:41 10° ENE visible
03 Aug 4.8 15:54:14 11° NNE 15:54:14 11° NNE 15:55:32 10° NE visible
03 Aug 3.6 17:37:47 10° NW 17:42:37 28° NNE 17:46:38 10° ENE visible
04 Aug 4.5 15:54:10 16° NE 15:54:10 16° NE 15:56:35 10° ENE visible
04 Aug 3.3 17:37:01 11° NW 17:42:07 34° NNE 17:46:27 10° ENE visible
05 Aug 4.3 15:53:59 20° NE 15:53:59 20° NE 15:56:53 10° ENE visible
05 Aug 3.0 17:36:49 14° NW 17:41:36 40° N 17:46:11 10° E visible
06 Aug 4.1 15:53:40 24° NE 15:53:40 24° NE 15:56:53 10° ENE visible
06 Aug 2.8 17:36:30 17° WNW 17:41:05 46° N 17:45:53 10° E visible
